User: anonymous   Login
Location: Limerick
(52.6800°N, 8.6400°W)
Time: 07:36:03
(UTC+00:00)
Language:

Sapphire - Orbit

View from above orbital plane
View from above orbital plane
View from above satellite
View from above satellite

Ground track
Ground track

The orbit data is extracted from the following two-line orbital elements,

1 26932U 01043D   17058.84799698 -.00000041  00000-0  16266-4 0  9992
2 26932  67.0574  15.4838 0006874 293.9077  66.1303 14.30240516804731
Epoch (UTC): 27 February 2017 20:21:06
Eccentricity: 0.0006874
inclination: 67.0574°
perigee height: 786 km
apogee height: 796 km
right ascension of ascending node: 15.4838°
argument of perigee: 293.9077°
revolutions per day: 14.30240516
mean anomaly at epoch: 66.1303°
orbit number at epoch: 80473

The dashed part of the orbit path shows where the satellite is in the earth's shadow,  

DLR